This demonstration page uses our WeatherBlox Daily Observations layout. Learn more.

Left ArrowRight Arrow

39.51506, -84.39828

Hourly Observations for May 15, 2019

Temp ( °F °C ) Dew Point ( °F °C ) Humidity (%) Winds ( mph kmh ) Pressure ( in mb ) Visibility ( mi km ) Precip ( " mm )
12:15 am 00:15 Mostly Cloudy 47 8.5 45 7 90 90 N N/A 30.04 1017 10 16 N/A
12:35 am 00:35 Clear 47 8.2 44 6.9 92 92 N N/A 30.04 1017 10 16 N/A
12:55 am 00:55 Clear 47 8.2 44 6.8 91 91 N N/A 30.04 1017 10 16 N/A
1:15 am 01:15 Partly Cloudy 46 7.8 44 6.7 93 93 N N/A 30.04 1017 10 16 N/A
1:35 am 01:35 Partly Cloudy 46 7.5 44 6.6 94 94 N N/A 30.05 1017 10 16 N/A
1:55 am 01:55 Mostly Cloudy 46 7.6 44 6.7 94 94 N N/A 30.05 1017 10 16 N/A
2:15 am 02:15 Mostly Cloudy 46 7.7 44 6.7 93 93 N N/A 30.04 1017 10 16 N/A
2:35 am 02:35 Mostly Cloudy 46 7.7 45 7.1 96 96 N N/A 30.03 1017 10 16 N/A
2:55 am 02:55 Cloudy 46 7.9 45 7.3 96 96 N N/A 30.03 1017 10 16 N/A
3:15 am 03:15 Mostly Cloudy 46 8 45 7.3 95 95 N N/A 30.03 1017 10 16 N/A
3:35 am 03:35 Clear 46 8 45 7.2 95 95 N N/A 30.03 1017 10 16 N/A
3:55 am 03:55 Clear 45 7.4 44 6.9 97 97 N N/A 30.04 1017 10 16 N/A
4:15 am 04:15 Clear 45 7 44 6.6 97 97 N N/A 30.04 1017 10 16 N/A
4:35 am 04:35 Clear 44 6.8 44 6.6 99 99 N N/A 30.03 1017 7 11 N/A
4:55 am 04:55 Clear 44 6.6 44 6.4 99 99 N N/A 30.03 1017 7 11 N/A
5:15 am 05:15 Clear 44 6.5 43 6.3 99 99 N N/A 30.03 1017 7 11 N/A
5:35 am 05:35 Clear with Mist and Fog 43 5.9 42 5.8 99 99 N N/A 30.03 1017 2 3 N/A
5:55 am 05:55 Clear 43 5.9 42 5.7 99 99 N N/A 30.03 1017 7 11 N/A
6:15 am 06:15 Clear 43 5.9 42 5.7 99 99 N N/A 30.03 1017 7 11 N/A
6:35 am 06:35 Mostly Cloudy with Mist and Fog 43 5.9 42 5.7 99 99 N N/A 30.04 1017 2 2 N/A
6:55 am 06:55 Sunny with Mist and Fog 43 5.9 42 5.8 99 99 N N/A 30.04 1017 5 8 N/A
7:15 am 07:15 Sunny 43 6.1 43 6 99 99 N N/A 30.04 1017 10 16 N/A
7:35 am 07:35 Sunny 45 7.3 45 7.1 99 99 N N/A 30.05 1017 10 16 N/A
7:55 am 07:55 Sunny 47 8.6 47 8.1 97 97 N N/A 30.04 1017 10 16 N/A
8:15 am 08:15 Sunny 49 9.6 47 8.5 93 93 N N/A 30.05 1018 10 16 N/A
8:35 am 08:35 Sunny 52 10.9 48 9.1 89 89 N N/A 30.04 1017 10 16 N/A
8:55 am 08:55 Sunny 55 12.5 48 9.1 80 80 N N/A 30.03 1017 10 16 N/A
9:15 am 09:15 Sunny 56 13.6 49 9.5 76 76 S 3 6 30.04 1017 10 16 N/A
9:35 am 09:35 Sunny 58 14.2 48 9.1 72 72 N N/A 30.04 1017 10 16 N/A
9:55 am 09:55 Sunny 60 15.4 50 9.8 69 69 WSW 3 6 30.04 1017 10 16 N/A
10:15 am 10:15 Sunny 62 16.4 50 10.2 67 67 S 3 6 30.03 1017 10 16 N/A
10:35 am 10:35 Sunny 64 17.7 51 10.5 63 63 SSW 5 7 30.03 1017 10 16 N/A
10:55 am 10:55 Sunny 66 19 50 9.8 55 55 SSW 6 9 30.02 1016 10 16 N/A
11:15 am 11:15 Sunny 67 19.6 50 9.8 53 53 SW 8 13 30.02 1016 10 16 N/A
11:35 am 11:35 Sunny 68 19.9 48 8.7 49 49 SW 8 13 30.01 1016 10 16 N/A
11:55 am 11:55 Sunny 69 20.6 48 8.7 47 47 SSW 9 15 30.01 1016 10 16 N/A
12:15 pm 12:15 Partly Cloudy 69 20.4 45 7 42 42 N N/A 30.00 1016 10 16 N/A
12:35 pm 12:35 Cloudy 68 20.2 45 7.4 44 44 W 6 9 30.00 1016 10 16 N/A
12:55 pm 12:55 Mostly Cloudy 69 20.4 43 6.2 40 40 N N/A 30.00 1016 10 16 N/A
1:15 pm 13:15 Cloudy 69 20.3 45 7.2 43 43 W 6 9 30.00 1016 10 16 N/A
1:35 pm 13:35 Cloudy 69 20.7 46 7.6 43 43 WSW 6 9 29.99 1016 10 16 N/A
1:55 pm 13:55 Mostly Cloudy 69 20.7 46 7.6 43 43 WSW 6 9 29.99 1016 10 16 N/A
2:15 pm 14:15 Cloudy 72 22 49 9.4 45 45 W 9 15 29.98 1015 10 16 N/A
2:35 pm 14:35 Cloudy 70 21.3 46 7.8 42 42 W 9 15 29.97 1015 10 16 N/A
2:55 pm 14:55 Cloudy 70 21 44 6.7 40 40 W 9 15 29.97 1015 10 16 N/A
3:15 pm 15:15 Cloudy 70 21.1 45 7.4 41 41 W 7 11 29.97 1015 10 16 N/A
3:35 pm 15:35 Cloudy 69 20.6 47 8.4 46 46 SW 8 13 29.97 1015 10 16 N/A
3:55 pm 15:55 Cloudy 69 20.7 47 8.2 45 45 WSW 8 13 29.96 1015 10 16 N/A
4:15 pm 16:15 Cloudy 70 21.1 48 8.7 45 45 W 10 17 29.96 1015 10 16 N/A
4:35 pm 16:35 Cloudy 70 21.1 49 9.2 47 47 WSW 8 13 29.95 1014 10 16 N/A
4:55 pm 16:55 Cloudy 71 21.4 48 8.9 45 45 W 12 19 29.95 1014 10 16 N/A
5:15 pm 17:15 Cloudy 71 21.4 48 8.8 45 45 W 8 13 29.95 1014 10 16 N/A
5:35 pm 17:35 Mostly Cloudy 71 21.8 50 10.2 48 48 WSW 9 15 29.95 1014 10 16 N/A
5:55 pm 17:55 Partly Cloudy 71 21.8 49 9.3 45 45 W 9 15 29.96 1015 10 16 N/A
6:15 pm 18:15 Sunny 71 21.6 49 9.7 47 47 W 10 17 29.96 1015 10 16 N/A
6:35 pm 18:35 Sunny 70 21.1 49 9.2 47 47 W 8 13 29.95 1014 10 16 N/A
6:55 pm 18:55 Sunny 70 20.9 49 9.2 47 47 W 9 15 29.95 1014 10 16 N/A
7:15 pm 19:15 Sunny 69 20.6 49 9.7 50 50 WSW 9 15 29.95 1014 10 16 N/A
7:35 pm 19:35 Sunny 68 19.9 49 9.7 52 52 WSW 9 15 29.95 1014 10 16 N/A
7:55 pm 19:55 Sunny 67 19.2 50 9.9 55 55 WSW 8 13 29.96 1014 10 16 N/A
8:15 pm 20:15 Sunny 65 18.3 50 10.2 59 59 WSW 7 11 29.96 1015 10 16 N/A
8:35 pm 20:35 Sunny 63 17.2 50 10.2 64 64 W 6 9 29.97 1015 10 16 N/A
8:55 pm 20:55 Clear 61 16.1 50 10 67 67 WSW 5 7 29.97 1015 10 16 N/A
9:15 pm 21:15 Clear 60 15.3 50 10.2 72 72 WSW 5 7 29.98 1015 10 16 N/A
9:35 pm 21:35 Clear 55 12.9 51 10.8 87 87 N N/A 29.98 1015 10 16 N/A
9:55 pm 21:55 Clear 55 12.7 52 11.1 90 90 N N/A 29.99 1016 10 16 N/A
10:15 pm 22:15 Clear 55 12.7 51 10.7 88 88 N N/A 29.99 1016 10 16 N/A
10:35 pm 22:35 Clear 55 12.8 52 11.2 90 90 N N/A 30.00 1016 10 16 N/A
10:55 pm 22:55 Clear 53 11.9 52 11.1 95 95 N N/A 30.01 1016 10 16 N/A
11:15 pm 23:15 Clear 54 12 52 10.9 93 93 N N/A 30.01 1016 10 16 N/A
11:35 pm 23:35 Clear 53 11.7 52 11 96 96 N N/A 30.00 1016 10 16 N/A
11:55 pm 23:55 Clear 52 11.2 51 10.5 96 96 N N/A 30.01 1016 10 16 N/A

Powered by AerisWeather